264  
ASUS41 KRLX 131210  
RWRRLX  
WEST VIRGINIA REGIONAL WEATHER ROUNDUP  
NATIONAL WEATHER SERVICE CHARLESTON WV  
700 AM EST WED DEC 13 2017  
 
NOTE: "FAIR" INDICATES FEW OR NO CLOUDS BELOW 12,000 FEET WITH NO  
SIGNIFICANT WEATHER AND/OR S TO VISIBILITY
.  
 
WVZ003-131300-  
NORTHERN PANHANDLE OF WEST VIRGINIA  
 
CITY SKY/WX TMP DP RH WIND PRES REMARKS
 
WHEELING CLOUDY 16 4 59 W10 29.86R WCI 4  

 
 
WVZ009-131300-  
NORTHWEST WEST VIRGINIA  
 
CITY SKY/WX TMP DP RH WIND PRES REMARKS
 
PARKERSBURG MOCLDY 20 9 62 W7G16 29.97R  

 
 
WVZ006-131300-  
WESTERN WEST VIRGINIA  
 
CITY SKY/WX TMP DP RH WIND PRES REMARKS
 
HUNTINGTON CLEAR 17 7 64 CALM 29.97S  

 
 
WVZ015-131300-  
WEST CENTRAL WEST VIRGINIA  
 
CITY SKY/WX TMP DP RH WIND PRES REMARKS
 
CHARLESTON CLEAR 18 8 65 SW7 29.97R WCI 9  

 
 
WVZ022-031-131300-  
NORTH CENTRAL WEST VIRGINIA  
 
CITY SKY/WX TMP DP RH WIND PRES REMARKS
 
CLARKSBURG CLOUDY 20 11 68 W12 29.89R WCI 8  
MORGANTOWN CLOUDY 18 7 62 W6 29.87R WCI 10  

 
 
WVZ025-035-042-045-131300-  
SOUTHERN WEST VIRGINIA  
 
CITY SKY/WX TMP DP RH WIND PRES REMARKS
 
BECKLEY CLOUDY 12 4 70 W8 29.85R WCI 0  
LOGAN N/A 18 7 62 CALM 29.93R  
BLUEFIELD CLOUDY 11 2 67 W13 29.83R WCI -4  
LEWISBURG CLOUDY 15 6 66 W9 29.83R WCI 3  

 
 
WVZ047-131300-  
NORTHERN MOUNTAINS OF WEST VIRGINIA  
 
CITY SKY/WX TMP DP RH WIND PRES REMARKS
 
ELKINS FLURRIES 15 7 70 W8 29.83R WCI 4  

 
 
WVZ052-131300-  
EASTERN PANHANDLE OF WEST VIRGINIA  
 
CITY SKY/WX TMP DP RH WIND PRES REMARKS
 
MARTINSBURG CLEAR 19 -1 41 NW16G23 29.81R WCI 4  
PETERSBURG CLOUDY 20 6 54 W20G28 29.83S WCI 5  

 
 
 
CLICK HERE TO GO TO PREVIOUS BULLETINS.

The Nexlab WV Page
The Nexlab OH Page
The Nexlab KY Page
The Nexlab VA Page Main Text Page